Regional Weather Roundup
Issued by NWS Lake Charles, LA

Home | Current Version | Previous Version | Text Only | Print | Product List | Glossary On
Versions: 1 2 3 4 5 6 7 8 9 10 11 12 13 14 15 16 17 18 19 20 21 22 23 24 25 26 27 28 29 30 31 32 33 34 35 36 37 38 39 40 41 42 43 44 45 46 47 48
000
ASUS44 KLCH 210710
RWRLCH
RWRLCH
REGIONAL WEATHER ROUNDUP
NATIONAL WEATHER SERVICE LAKE CHARLES LA
200 AM CDT THU AUG 21 2014

Note: "fair" indicates few or no clouds below 12,000 feet with no
significant weather and/or obstructions to visibility.


ACROSS SOUTHEAST TEXAS

CITY           SKY/WX    TMP DP  RH WIND       PRES   REMARKS
BEAUMONT       PTCLDY    82  77  84 S7        30.03S
BEAUMONT CITY    N/A     79  77  95 CALM      30.03F
ORANGE         MOSUNNY   83  78  83 S7        30.05S
JASPER         MOCLDY    74  73  95 CALM      30.07S
$$

ACROSS CENTRAL LOUISIANA

CITY           SKY/WX    TMP DP  RH WIND       PRES   REMARKS
LEESVILLE      MOCLDY    74  72  93 SE6       30.06F
FULLERTON        N/A     77  73  87 S3        30.04F
ALEXANDRIA INT PTCLDY    74  72  93 CALM      30.05S
ESLER FIELD    PTCLDY    74  71  91 CALM      30.06F
DERIDDER         N/A     75  72  89 CALM      30.08S FOG
OAKDALE        PTSUNNY   74  73  95 CALM      30.07S
OPELOUSAS        N/A     75  75  99 CALM      30.06F
$$

ACROSS SOUTHWEST AND SOUTH CENTRAL LOUISIANA

CITY           SKY/WX    TMP DP  RH WIND       PRES   REMARKS
SULPHUR        PTSUNNY   80  78  95 E5        30.06S
LAKE CHARLES   MOCLDY    79  77  94 CALM      30.05S
CHENNAULT INT  MOCLDY    76  74  91 E3        30.06F
CAMERON PHI      N/A     86  79  79 S13G20    30.05R
DEQUINCY       PTSUNNY   75  73  94 CALM      30.06S
JENNINGS         N/A     76  75  99 E5        30.06F
LAFAYETTE      MOCLDY    78  75  90 CALM      30.06F
NEW IBERIA     MOCLDY    78  74  87 E5        30.07F
ABBEVILLE        N/A     76  75  99 CALM      30.06F
PATTERSON      PTCLDY   N/A N/A N/A MISG        N/A
SALT POINT       N/A     84  79  85 SE3       30.06S
$$

SELECTED SITES ACROSS THE REGION

CITY           SKY/WX    TMP DP  RH WIND       PRES   REMARKS
HOUSTON BUSH   PTCLDY    81  77  88 S5        30.02S
HOUSTON HOBBY  CLEAR     80  76  87 SE3       30.02S
GALVESTON      PTCLDY    85  80  85 S17       30.04S
COLLEGE STAT   CLEAR     80  75  84 S9        30.02R
CONROE         CLEAR     74  73  97 CALM      30.04R
HUNTSVILLE     CLEAR     79  76  90 S6        30.03S
LUFKIN         CLEAR     76  72  87 SE3       30.04R
SHREVEPORT     PTCLDY    75  71  87 SE6       30.04S
MONROE         CLEAR     74  70  87 CALM      30.07F
NATCHEZ MS     PTCLDY    75  72  88 SE3       30.10S
BATON ROUGE    MOCLDY    75  72  90 NE3       30.08S
N.O. INTL ARPT MOCLDY    78  73  84 SE5       30.08S
SLIDELL        CLEAR     76  73  91 CALM      30.08S
$$

MARINE REPORTS

STATION/POSITION TIME  TEMP    WIND        PRES    VSBY  WAVE
                       AIR SEA DIR/SP/G                  HT/PER
                 (UTC) (F)     (DEG/KT/KT) (MB)    (MI)  (FT/S)
BUOY 30 S HIGH I NOT AVBL
SEA RIM ST PARK  0700   85     190/ 13/ 17 1017.5S
PORT ARTHUR      0700      87  190/  5/  9 1017.1R
SABINE PASS N    0700   85 87  200/ 11/ 18 1017.0S
TEXAS POINT      0700   85 87  190/ 17/ 21 1017.0S
CALCASIEU PASS   0700   86 87  210/ 16/ 18 1018.3S
LK CHARLES BEACH 0700   78 87              1018.4R
MARSH ISLAND     0600   88     180/ 10/ 14   N/A
FRESH WATER LOCK 0700   85 87  150/  8/ 11 1017.7F
AMERADA PASS     0700   81 85  140/  2/  3 1018.0F
$$


USA.gov is the U.S. government's official web portal to all federal, state and local government web resources and services.